カタログに戻る

STARLINK-30609

運用中通信VLEO
NORAD 58085·PAYLOAD·🇺🇸 United States

打ち上げ Oct 18, 2023 から Cape Canaveral Space Force Station

Loading…

次のパス (今後24時間)

TLE

最新Source: CelesTrak SupGP

元期: Sep 14, 2026, 22:42 UTC

1 58085C 23160L   26257.94631944  .00053710  00000+0  19453-2 0  2576
2 58085  43.0000  92.5375 0001493 269.3491 298.9331 15.27552862    16

AllMySatでSTARLINK-30609をリアルタイム追跡

Download on the App Store